This is the latest recevied weather packets stored in our database for station/object W7TJC. If no packets are shown the sender has not sent any weather packets the latest 1 day(s).
| Time | Temp. | Humidity | Pressure | Rain* | Wind** | Luminosity | Snow |
|---|---|---|---|---|---|---|---|
| 1778103924 | 12.78° C | 81% | 1021.7 hPa | 0 mm | - | 35 W/m² | - |
| 1778100586 | 12.78° C | 80% | 1021.8 hPa | 0 mm | - | 55 W/m² | - |
| 1778100284 | 13.33° C | 80% | 1022 hPa | 0 mm | - | 61 W/m² | - |
| 1778098163 | 12.78° C | 80% | 1021.6 hPa | 0 mm | - | 77 W/m² | - |
| 1778097253 | 12.78° C | 79% | 1021.8 hPa | 0 mm | - | 90 W/m² | - |
| 1778094827 | 12.22° C | 81% | 1021.4 hPa | 0 mm | - | 100 W/m² | - |
| 1778090888 | 12.22° C | 82% | 1021.3 hPa | 0 mm | - | 98 W/m² | - |
| 1778090280 | 12.22° C | 83% | 1021.4 hPa | 0 mm | - | 62 W/m² | - |
| 1778089977 | 11.67° C | 83% | 1021.2 hPa | 0 mm | - | 92 W/m² | - |
| 1778088766 | 11.67° C | 85% | 1021.1 hPa | 0 mm | - | 63 W/m² | - |
| 1778086343 | 11.11° C | 90% | 1021.2 hPa | 0 mm | - | 37 W/m² | - |
| 1778085737 | 11.11° C | 90% | 1021.2 hPa | 0 mm | - | 42 W/m² | - |
| 1778082706 | 11.11° C | 92% | 1020.4 hPa | 0 mm | - | 49 W/m² | - |
| 1778081265 | 10.56° C | 93% | 1020.8 hPa | 0 mm | - | 19 W/m² | - |
| 1778077330 | 10.56° C | 93% | 1020.8 hPa | 0 mm | - | 7 W/m² | - |
| 1778076726 | 10.56° C | 93% | 1020.6 hPa | 0 mm | - | 6 W/m² | - |
| 1778076120 | 10.56° C | 94% | 1020.3 hPa | 0 mm | - | 5 W/m² | - |
| 1778075817 | 10.56° C | 94% | 1020.2 hPa | 0 mm | - | 5 W/m² | - |
| 1778075513 | 10.56° C | 94% | 1020.4 hPa | 0 mm | - | 3 W/m² | - |
| 1778074603 | 10° C | 94% | 1020.3 hPa | 0 mm | - | 2 W/m² | - |
| 1778074300 | 10° C | 94% | 1020.4 hPa | 0 mm | - | 2 W/m² | - |
| 1778073694 | 10° C | 94% | 1020.4 hPa | 0 mm | - | 0 W/m² | - |
| 1778072482 | 10.56° C | 94% | 1020.1 hPa | 0 mm | - | 0 W/m² | - |
| 1778071273 | 10.56° C | 93% | 1020 hPa | 0 mm | - | 0 W/m² | - |
| 1778070669 | 10.56° C | 93% | 1019.8 hPa | 0 mm | - | 0 W/m² | - |
* Rain latest hour (hover to see other rain measurements)
** Current wind speed in m/s (hover to see current wind gust speed)